User: anonymous   Login
Location: Antin
(43.3330°N, 0.2804°E)
Time: 14:57:52
(UTC+00:00)
Language:

YAOGAN 1 - Orbit

View from above orbital plane
View from above orbital plane
View from above satellite
View from above satellite

Ground track
Ground track

The orbit data is extracted from the following two-line orbital elements,

1 29092U 06015A   22023.84845964  .00000213  00000-0  32489-4 0  9997
2 29092  97.8893  53.7316 0001442  90.2618 269.8761 14.83258081851508
Epoch (UTC): 23 January 2022 20:21:46
Eccentricity: 0.0001442
inclination: 97.8893°
perigee height: 618 km
apogee height: 620 km
right ascension of ascending node: 53.7316°
argument of perigee: 90.2618°
revolutions per day: 14.83258081
mean anomaly at epoch: 269.8761°
orbit number at epoch: 85150

The dashed part of the orbit path shows where the satellite is in the earth's shadow,  

DLR